Eveleth, MN

5:55 PM CST on January 19, 2017 (GMT -0600)
Eveleth-Virginia Municipal

Weather History for KEVM - October, 2013

Change the Weather History Date:

Friday, October 11, 2013

  Actual Average Record
Temperature  
Mean Temperature 60 °F -  
Max Temperature 71 °F 53 °F 82 °F (2015)
Min Temperature 50 °F 33 °F 19 °F (1988)
Degree Days  
Heating Degree Days 4    
Growing Degree Days 10 (Base 50)    
Moisture  
Dew Point 49 °F    
Average Humidity 67    
Maximum Humidity 82    
Minimum Humidity 50    
Precipitation  
Precipitation 0.06 in - - ()
Sea Level Pressure  
Sea Level Pressure 29.82 in    
Wind  
Wind Speed 8 mph (SE)    
Max Wind Speed 22 mph    
Max Gust Speed 33 mph    
Visibility 10 miles    
Events Rain , Thunderstorm    
Averages and records for this station are not official NWS values.
T = Trace of Precipitation, MM = Missing Value Source: NWS Daily Summary

Daily Weather History Graph

Daily Weather History Graph

Search for Another Location

Airport or City:

Trip Planner

Search our weather history database for the weather conditions in past years. The results will help you decide how hot, cold, wet, or windy it might be!

Date:

Astronomy

Oct. 11, 2013 Rise Set
Actual Time 7:23 AM CDT 6:29 PM CDT
Civil Twilight 6:52 AM CDT 6:59 PM CDT
Nautical Twilight 6:16 AM CDT 7:35 PM CDT
Astronomical Twilight 5:41 AM CDT 8:11 PM CDT
Moon 2:18 PM CDT (10/11) No Moon Set
Length of Visible Light 12h 07m
Length of Day
11h 05m
Waxing Crescent, 47% of the Moon is Illuminated
Oct 11
Waxing Crescent
Oct 11
First Quarter
Oct 18
Full
Oct 26
Last Quarter
Nov 3
New

Hourly Weather History & Observations

Time (CDT) Temp. Dew Point Humidity Pressure Visibility Wind Dir Wind Speed Gust Speed Precip Events Conditions
12:06 AM 50.0 °F 44.6 °F 82% 29.95 in 10.0 mi NE 4.6 mph - N/A   Clear
12:27 AM 50.0 °F 42.8 °F 76% 29.95 in 10.0 mi NE 4.6 mph - N/A   Clear
12:47 AM 50.0 °F 44.6 °F 82% 29.94 in 10.0 mi NE 4.6 mph - N/A   Clear
1:06 AM 50.0 °F 44.6 °F 82% 29.94 in 10.0 mi ENE 3.5 mph - N/A   Clear
1:27 AM 50.0 °F 44.6 °F 82% 29.95 in 10.0 mi East 3.5 mph - N/A   Clear
1:46 AM - - N/A% 29.95 in 10.0 mi SE 3.5 mph - N/A   Clear
2:07 AM 51.8 °F 42.8 °F 71% 29.95 in 10.0 mi SE 4.6 mph - N/A   Clear
2:26 AM 53.6 °F 44.6 °F 72% 29.95 in 10.0 mi SE 5.8 mph - N/A   Clear
2:47 AM 53.6 °F 44.6 °F 72% 29.95 in 10.0 mi SE 6.9 mph - N/A   Clear
3:06 AM 53.6 °F 44.6 °F 72% 29.95 in 10.0 mi SSE 5.8 mph - N/A   Clear
3:27 AM 53.6 °F 44.6 °F 72% 29.94 in 10.0 mi SE 6.9 mph - N/A   Clear
3:47 AM 53.6 °F 44.6 °F 72% 29.95 in 10.0 mi SSE 5.8 mph - N/A   Clear
4:06 AM 53.6 °F 44.6 °F 72% 29.94 in 10.0 mi SE 5.8 mph - N/A   Clear
4:27 AM 53.6 °F 44.6 °F 72% 29.95 in 10.0 mi SSE 5.8 mph - N/A   Clear
4:47 AM 53.6 °F 46.4 °F 77% 29.95 in 10.0 mi SE 6.9 mph - N/A   Clear
5:06 AM 53.6 °F 46.4 °F 77% 29.94 in 10.0 mi SSE 4.6 mph - N/A   Clear
5:27 AM 53.6 °F 46.4 °F 77% 29.94 in 10.0 mi SE 4.6 mph - N/A   Clear
5:47 AM 53.6 °F 44.6 °F 72% 29.94 in 10.0 mi SE 3.5 mph - N/A   Clear
6:06 AM 51.8 °F 44.6 °F 76% 29.93 in 10.0 mi SE 4.6 mph - N/A   Clear
6:27 AM 51.8 °F 44.6 °F 76% 29.93 in 10.0 mi SSE 4.6 mph - N/A   Clear
6:47 AM 51.8 °F 44.6 °F 76% 29.93 in 10.0 mi SE 4.6 mph - N/A   Clear
7:06 AM 51.8 °F 44.6 °F 76% 29.93 in 10.0 mi SE 4.6 mph - N/A   Clear
7:27 AM 51.8 °F 44.6 °F 76% 29.93 in 10.0 mi SE 4.6 mph - N/A   Clear
7:47 AM 51.8 °F 46.4 °F 82% 29.92 in 10.0 mi SE 4.6 mph - N/A   Clear
8:06 AM 53.6 °F 46.4 °F 77% 29.92 in 10.0 mi SE 6.9 mph - N/A   Clear
8:27 AM 53.6 °F 46.4 °F 77% 29.92 in 10.0 mi SE 6.9 mph - N/A   Clear
8:47 AM 55.4 °F 46.4 °F 72% 29.91 in 10.0 mi SE 4.6 mph - N/A   Clear
9:06 AM 57.2 °F 48.2 °F 72% 29.91 in 10.0 mi SE 6.9 mph - N/A   Clear
9:27 AM 57.2 °F 46.4 °F 67% 29.91 in 10.0 mi SE 9.2 mph - N/A   Clear
9:46 AM 59.0 °F 48.2 °F 67% 29.91 in 10.0 mi SE 6.9 mph - N/A   Clear
10:07 AM 59.0 °F 50.0 °F 72% 29.91 in 10.0 mi SE 8.1 mph - N/A   Clear
10:27 AM 59.0 °F 50.0 °F 72% 29.90 in 10.0 mi SE 8.1 mph - N/A   Clear
10:46 AM 62.6 °F 50.0 °F 63% 29.87 in 10.0 mi SE 8.1 mph 17.3 mph N/A   Clear
11:07 AM 62.6 °F 50.0 °F 63% 29.87 in 10.0 mi SE 10.4 mph 16.1 mph N/A   Clear
11:27 AM 64.4 °F 50.0 °F 59% 29.86 in 10.0 mi SSE 13.8 mph 19.6 mph N/A   Clear
11:47 AM 64.4 °F 50.0 °F 59% 29.85 in 10.0 mi SE 12.7 mph 24.2 mph N/A   Clear
12:07 PM 68.0 °F 51.8 °F 56% 29.84 in 10.0 mi SE 11.5 mph 19.6 mph N/A   Clear
12:26 PM 69.8 °F 51.8 °F 53% 29.83 in 10.0 mi SE 19.6 mph 27.6 mph N/A   Clear
12:47 PM 68.0 °F 50.0 °F 52% 29.81 in 10.0 mi SE 13.8 mph 28.8 mph N/A   Clear
1:07 PM 71.6 °F 53.6 °F 53% 29.79 in 10.0 mi SE 17.3 mph 24.2 mph N/A   Clear
1:26 PM 69.8 °F 51.8 °F 53% 29.77 in 10.0 mi SE 21.9 mph 32.2 mph N/A   Clear
1:47 PM 71.6 °F 53.6 °F 53% 29.76 in 10.0 mi SSE 20.7 mph 24.2 mph N/A   Clear
2:07 PM 71.6 °F 51.8 °F 50% 29.75 in 10.0 mi SE 19.6 mph 29.9 mph N/A   Clear
2:26 PM 71.6 °F 51.8 °F 50% 29.74 in 10.0 mi SE 18.4 mph 33.4 mph N/A   Clear
2:47 PM 71.6 °F 51.8 °F 50% 29.74 in 10.0 mi SE 16.1 mph 28.8 mph N/A   Clear
3:07 PM 71.6 °F 51.8 °F 50% 29.74 in 10.0 mi SE 12.7 mph 32.2 mph N/A   Clear
3:26 PM 69.8 °F 51.8 °F 53% 29.72 in 10.0 mi SE 13.8 mph 26.5 mph N/A   Clear
3:47 PM 68.0 °F 50.0 °F 52% 29.73 in 10.0 mi SE 12.7 mph 25.3 mph N/A   Clear
4:07 PM 68.0 °F 50.0 °F 52% 29.73 in 10.0 mi ESE 12.7 mph 26.5 mph N/A   Clear
4:26 PM 68.0 °F 51.8 °F 56% 29.73 in 10.0 mi ESE 9.2 mph - N/A   Clear
4:47 PM 66.2 °F 50.0 °F 56% 29.72 in 10.0 mi SE 11.5 mph 19.6 mph N/A Thunderstorm Clear
5:07 PM 64.4 °F 50.0 °F 59% 29.73 in 10.0 mi SE 11.5 mph 19.6 mph N/A   Clear
5:26 PM 64.4 °F 50.0 °F 59% 29.72 in 10.0 mi ESE 9.2 mph - N/A Rain Light Rain
5:47 PM 64.4 °F 50.0 °F 59% 29.72 in 10.0 mi ESE 8.1 mph 16.1 mph N/A   Overcast
6:07 PM 64.4 °F 50.0 °F 59% 29.70 in 10.0 mi ESE 11.5 mph 18.4 mph N/A Thunderstorm Overcast
6:26 PM 64.4 °F 50.0 °F 59% 29.71 in 10.0 mi SE 9.2 mph 17.3 mph N/A Thunderstorm Thunderstorm
6:44 PM 59.0 °F 51.8 °F 77% 29.72 in 7.0 mi ESE 3.5 mph - 0.06 in Rain , Thunderstorm Light Thunderstorms and Rain
8:39 PM - - N/A% 29.67 in - ESE 8.1 mph - N/A   Unknown
8:47 PM 60.8 °F 53.6 °F 77% 29.67 in 10.0 mi ESE 8.1 mph 16.1 mph N/A   Unknown
9:06 PM 60.8 °F 53.6 °F 77% 29.66 in 10.0 mi SE 11.5 mph 19.6 mph N/A   Overcast
9:27 PM 62.6 °F 51.8 °F 68% 29.65 in 10.0 mi SE 11.5 mph 20.7 mph N/A   Mostly Cloudy
9:47 PM 62.6 °F 51.8 °F 68% 29.64 in 10.0 mi SE 12.7 mph 23.0 mph N/A   Scattered Clouds
10:06 PM 62.6 °F 51.8 °F 68% 29.63 in 10.0 mi SE 15.0 mph 24.2 mph N/A   Clear
10:27 PM 62.6 °F 51.8 °F 68% 29.63 in 10.0 mi SE 13.8 mph 25.3 mph N/A   Scattered Clouds
10:47 PM 62.6 °F 51.8 °F 68% 29.62 in 10.0 mi SE 12.7 mph 19.6 mph N/A   Mostly Cloudy
11:06 PM 62.6 °F 51.8 °F 68% 29.62 in 10.0 mi SE 13.8 mph 18.4 mph N/A   Mostly Cloudy
11:27 PM 62.6 °F 51.8 °F 68% 29.62 in 10.0 mi SE 12.7 mph 18.4 mph N/A   Scattered Clouds
11:47 PM 62.6 °F 51.8 °F 68% 29.61 in 10.0 mi SE 12.7 mph 19.6 mph N/A   Mostly Cloudy